Regional Weather Roundup
Issued by NWS

Home | Current Version | Previous Version | Graphics & Text | Print | Product List | Glossary On
Versions: 1 2 3 4 5 6 7 8 9 10 11 12 13 14 15 16 17 18 19 20 21 22 23 24 25 26 27 28 29 30 31 32 33 34 35 36 37 38 39 40 41 42 43 44 45 46 47 48 49 50
000
ASUS43 KOAX 210402
RWRNE

WEATHER ROUNDUP FOR NEBRASKA
NATIONAL WEATHER SERVICE OMAHA NE
1100 PM CDT MON APR 20 2015

NOTES: SATELLITE DATA IS BEING USED TO AUGMENT CLOUD COVER ABOVE
       12000 FEET.
       "FAIR" INDICATES FEW OR NO CLOUDS BELOW 12,000 FEET WITH NO
       SIGNIFICANT WEATHER AND/OR OBSTRUCTIONS TO VISIBILITY.

  * THESE STATIONS DO NOT REPORT WEATHER SUCH AS RAIN...SNOW OR FOG.

NEZ001>004-019>022-054>056-210500-
NEBRASKA PANHANDLE

CITY           SKY/WX    TMP DP  RH WIND       PRES   REMARKS
SCOTTSBLUFF    CLEAR     40  26  57 NW6       29.90R
ALLIANCE       CLEAR     36  26  67 N7        29.89R WCI  30
CHADRON        CLEAR     31  24  75 W6        29.90R WCI  25
SIDNEY         CLEAR     30  26  85 W8        29.92R WCI  22
$$

NEZ057>060-069>072-079>082-210500-
SOUTHWEST NEBRASKA

CITY           SKY/WX    TMP DP  RH WIND       PRES   REMARKS
NORTH PLATTE   CLEAR     34  26  72 E3        29.88R
IMPERIAL       CLEAR     38  28  67 W7        29.90R WCI  33
MCCOOK         CLEAR     44  30  57 S5        29.89R
$$

NEZ005>010-023>029-035>040-094-210500-
NORTH CENTRAL NEBRASKA

CITY           SKY/WX    TMP DP  RH WIND       PRES   REMARKS
VALENTINE      CLOUDY    42  26  53 W7        29.86R
AINSWORTH      CLOUDY    45  25  45 W6        29.85R
BROKEN BOW     CLEAR     37  26  64 CALM      29.86R
ORD            CLOUDY    42  28  57 NW7       29.84R
$$

NEZ041-046>049-061>064-073>077-083>087-210500-
SOUTH CENTRAL NEBRASKA

CITY           SKY/WX    TMP DP  RH WIND       PRES   REMARKS
GRAND ISLAND   CLOUDY    43  30  60 W8        29.86R
HASTINGS       CLEAR     42  29  59 W6        29.86S
KEARNEY *      CLEAR     43  27  52 W6        29.88S
YORK           CLOUDY    41  32  70 W7        29.85S
$$

NEZ011>018-030>034-042>045-210500-
NORTHEAST NEBRASKA

CITY           SKY/WX    TMP DP  RH WIND       PRES   REMARKS
NORFOLK        PTCLDY    41  18  39 W9        29.80S
BLAIR          CLEAR     44  18  35 W5        29.79S
COLUMBUS *     CLEAR     39  23  52 W5        29.84S
TEKAMAH        CLEAR     41  22  46 W12       29.78S
$$

NEZ050>053-065>068-078-088>093-210500-
SOUTHEAST NEBRASKA

CITY           SKY/WX    TMP DP  RH WIND       PRES   REMARKS
LINCOLN        CLEAR     47  26  44 W7        29.84S
OMAHA EPPLEY   CLEAR     47  20  34 W8        29.79S
FALLS CITY     PTCLDY    45  28  51 SW9       29.83R
PLATTSMOUTH    CLEAR     43  23  44 W6        29.80F
$$

NEZ044-045-051>053-067-210500-
OMAHA AREA

CITY           SKY/WX    TMP DP  RH WIND       PRES   REMARKS
OMAHA EPPLEY   CLEAR     47  20  34 W8        29.79S
BLAIR          CLEAR     44  18  35 W5        29.79S
OFFUTT AFB     CLEAR     42  26  52 W6        29.79S
PLATTSMOUTH    CLEAR     43  23  44 W6        29.80F
$$



USA.gov is the U.S. government's official web portal to all federal, state and local government web resources and services.